Location: Finney State Fishing Lake and Wildlife Area
(38.1834°N, 100.3310°W)
Time: 13:05:19
(UTC+00:00)

BlueWalker 3 - Pass Details

Date: 13 December 2022
Orbit: 499 x 517 km, 53.2° (Epoch: 29 January)

Event Time Altitude Azimuth Distance (km) Brightness Sun altitude
Rises 23:48:35 0° 313° (NW) 2,628 5.9 -5.5°
Reaches altitude 10° 23:50:48 10° 315° (NW) 1,735 4.9 -5.9°
Maximum altitude 23:54:43 74° 40° (NE) 531 1.9 -6.6°
Drops below altitude 10° 23:58:36 10° 127° (SE) 1,712 4.4 -7.3°
Sets 00:00:46 0° 129° (SE) 2,590 5.3 -7.7°
